Location: Carite
(10.3909°N, 67.0102°W)
Time: 01:51:08
(UTC+00:00)

Cosmos 2322 - Pass Details

Date: 08 September 2024
Orbit: 840 x 854 km, 71.0° (Epoch: 06 October)

Event Time Altitude Azimuth Distance (km) Brightness Sun altitude
Rises 22:43:26 0° 181° (S) 3,390 6.8 -3.5°
Reaches altitude 10° 22:45:59 10° 174° (S) 2,453 6.0 -4.1°
Maximum altitude 22:51:16 42° 104° (ESE) 1,179 4.1 -5.4°
Drops below altitude 10° 22:56:32 10° 35° (NE) 2,448 5.8 -6.7°
Sets 22:59:04 0° 28° (NNE) 3,381 6.6 -7.3°
